Location: Killam
(52.7910°N, 111.8608°W)
Time: 01:15:25
(UTC+00:00)

AO-85 - Pass Details

Date: 09 December 2023
Orbit: 516 x 753 km, 64.8° (Epoch: 04 January)

Event Time Altitude Azimuth Distance (km) Brightness Sun altitude
Rises 02:00:21 0° 316° (NW) 2,829 ? -24.0°
Reaches altitude 10° 02:02:35 10° 322° (NW) 1,961 ? -24.4°
Enters shadow 02:05:38 38° 351° (N) 967 ? -24.8°
